Location: Charbonni�res
(45.9952°N, 2.9982°E)
Time: 18:05:53
(UTC+00:00)

USA 307 - Pass Details

Date: 29 November 2020
Orbit: 564 x 583 km, 54.0° (Epoch: 11 January)

Event Time Altitude Azimuth Distance (km) Brightness Sun altitude
Exits shadow 05:06:15 27° 347° (NNW) 1,138 4.2 -20.4°
Maximum altitude 05:06:55 28° 4° (N) 1,104 4.2 -20.3°
Drops below altitude 10° 05:10:42 10° 64° (ENE) 1,907 6.3 -19.7°
Sets 05:13:13 0° 76° (ENE) 2,807 7.6 -19.2°
